Theta_e
326 336 344 342 343 343 343 343 343 345 346 345 348 347 345 343 341 340 339 339 341 340 339 338 339 340 340 339 339 341 342 342 342 341 341 340 339 340 340 340 340 335 341
329 337 345 346 342 341 342 342 344 345 345 343 347 346 344 342 340 339 338 340 341 339 339 338 337 337 337 336 337 337 337 337 338 340 341 342 340 341 341 340 339 335 340
333 338 342 346 346 345 344 344 344 344 343 345 347 345 344 342 340 338 337 340 340 338 336 339 339 337 335 335 336 336 337 338 338 338 338 333 337 341 341 338 337 336 337
334 339 341 344 345 344 342 342 342 340 342 344 346 346 344 341 339 337 336 338 339 339 340 340 338 337 335 333 335 337 338 336 334 333 330 330 334 339 339 337 337 336 336
335 338 340 344 345 343 341 340 339 339 339 342 345 344 341 340 336 336 336 337 338 337 338 339 338 337 335 336 337 337 336 334 332 329 326 327 330 334 335 334 332 331 331
334 338 340 345 344 342 341 339 338 338 338 340 343 342 340 338 335 335 335 336 336 336 335 339 337 337 337 338 336 335 333 331 328 324 325 329 328 333 333 330 330 329 329
333 337 339 344 344 343 342 340 339 338 338 338 341 340 336 335 335 334 334 335 336 332 337 339 339 337 337 335 334 332 331 329 321 321 325 326 327 332 331 329 327 326 326
333 336 339 338 340 342 342 342 341 340 339 339 339 337 336 335 334 333 333 333 333 331 334 338 336 334 334 333 332 331 330 326 321 319 320 324 328 329 328 327 326 325 324
334 335 337 338 337 336 338 338 339 339 339 339 339 338 335 334 334 333 333 333 333 331 334 335 334 333 333 332 331 331 329 326 318 319 321 321 327 327 326 325 324 323 322
332 334 335 335 336 335 335 332 334 335 336 336 336 333 331 331 332 331 330 332 332 332 335 334 333 332 331 331 329 327 327 326 319 320 319 322 326 325 325 323 322 321 321
332 333 335 337 335 334 333 329 329 331 331 331 329 327 324 322 322 323 325 331 333 332 331 330 330 329 328 326 325 323 321 320 320 320 320 325 325 323 323 322 321 321 320
329 332 334 335 337 333 335 329 330 329 327 326 324 322 320 318 317 321 322 327 329 328 328 329 328 323 317 312 314 317 313 318 319 320 320 326 324 322 321 320 319 319 319
330 331 333 333 335 336 333 330 328 327 325 323 321 320 318 316 316 318 319 319 320 319 319 320 315 312 311 310 310 311 312 315 317 318 322 325 323 322 320 320 319 318 317
329 331 333 333 333 335 335 333 332 329 323 321 319 318 316 314 314 315 316 316 316 314 311 310 309 309 309 309 309 310 312 313 314 315 318 321 323 321 321 319 318 316 316
328 330 332 332 332 334 334 334 333 331 326 322 319 318 317 314 313 313 314 314 314 311 309 308 307 307 307 306 306 307 308 310 311 312 315 318 322 322 320 320 318 317 315
325 327 330 330 332 333 332 332 332 332 330 323 320 319 317 316 313 313 312 312 312 311 308 307 305 305 304 304 304 304 304 304 306 308 313 313 321 322 321 320 317 317 316
323 324 326 329 330 332 331 332 331 331 331 328 322 320 318 316 314 313 312 312 312 311 308 308 305 305 304 304 304 303 302 302 301 303 304 305 313 319 321 320 318 318 316
319 322 325 329 328 329 331 331 331 331 331 330 327 322 320 318 316 316 316 315 314 312 310 307 304 303 303 303 302 302 301 300 300 299 299 300 302 305 314 320 318 317 316
318 319 322 326 327 328 328 330 331 331 330 330 330 325 321 319 318 318 316 316 313 312 309 307 302 302 300 299 299 297 296 297 298 298 298 298 300 301 302 313 317 315 315
314 317 322 324 327 328 328 328 330 330 330 330 329 328 325 322 320 319 317 315 313 312 309 306 303 299 298 298 295 293 291 290 291 294 297 297 296 297 297 298 299 302 315
309 312 316 320 324 326 326 327 327 327 328 329 330 329 328 326 323 320 319 316 314 312 310 308 302 295 294 292 292 292 290 290 289 289 291 293 295 295 295 295 294 296 299
300 308 312 317 321 324 327 327 327 328 329 329 329 329 329 327 326 323 320 317 314 313 310 306 301 295 294 294 294 291 291 292 288 290 288 292 294 294 293 294 294 295 296
292 296 306 311 316 320 325 321 313 315 317 324 327 328 329 329 328 326 323 321 316 314 311 307 304 303 297 292 293 296 287 290 286 288 289 289 291 293 291 293 293 293 294
295 293 296 304 310 314 319 319 321 323 322 325 327 328 327 328 329 327 325 324 319 316 314 309 307 305 304 295 295 294 293 292 289 290 284 287 288 289 292 292 292 291 292
295 295 296 299 305 311 315 320 320 320 321 318 315 319 325 325 327 327 326 325 322 318 316 312 308 306 306 302 297 292 295 291 288 287 292 286 283 288 289 291 291 291 289
295 296 297 300 303 308 312 314 315 318 316 310 309 312 314 320 323 324 322 324 323 319 317 314 310 307 306 306 301 303 298 292 293 290 287 291 285 285 287 288 289 290 291
Wind_Speed
4 6 11 12 12 11 11 13 12 10 12 12 14 16 18 17 16 16 16 15 15 17 17 19 17 17 18 18 17 19 19 19 19 19 18 19 20 21 21 19 19 16 22
9 6 10 11 11 11 11 12 11 10 11 12 13 15 17 16 15 15 15 13 15 17 15 16 19 18 17 17 17 18 18 17 16 16 16 16 19 22 22 21 19 18 23
11 7 8 11 11 12 11 11 11 11 12 14 13 15 16 16 14 14 14 12 15 15 14 15 18 17 17 18 18 18 17 17 17 16 15 8 14 23 24 22 22 21 21
9 6 5 11 12 13 13 11 11 12 10 12 12 15 16 15 14 14 13 12 14 16 15 16 17 17 15 16 15 15 19 19 18 16 10 9 13 22 22 22 22 22 22
7 6 6 11 13 13 13 12 13 11 10 11 12 15 15 14 13 13 13 12 13 14 14 15 15 16 16 15 14 18 20 19 18 13 8 8 9 16 20 20 18 20 20
9 7 8 12 13 14 13 13 13 12 11 12 12 14 14 14 12 12 12 11 14 13 10 14 14 15 14 15 16 18 18 17 13 7 9 13 10 18 19 19 18 19 19
8 7 8 12 13 13 13 13 13 12 12 12 12 12 13 12 13 13 12 11 13 12 11 15 16 14 15 17 17 17 17 15 7 7 9 9 10 17 18 18 17 17 17
9 7 7 10 11 12 12 13 12 10 11 10 11 11 12 12 12 12 12 11 11 11 12 16 16 15 15 15 16 16 16 14 9 8 7 8 14 16 16 16 16 17 16
7 7 6 6 9 10 10 9 12 10 10 10 9 10 11 10 11 11 10 11 11 10 11 14 14 14 14 14 15 16 14 15 7 5 7 6 13 14 15 14 15 16 15
6 6 7 6 6 5 6 8 10 10 9 10 9 11 10 9 10 9 8 8 12 10 13 14 14 13 13 14 14 14 12 11 6 6 5 6 14 12 14 14 13 14 13
4 6 6 8 5 5 5 5 9 9 8 8 8 9 8 4 6 7 5 7 11 11 12 12 12 12 13 12 13 12 10 3 5 3 4 15 12 11 12 12 13 13 12
9 11 10 10 8 5 4 5 5 5 4 4 5 6 4 5 5 4 6 6 9 10 11 11 12 10 7 4 4 8 3 5 4 3 4 14 11 10 10 10 11 11 12
11 10 10 9 9 9 5 4 2 2 3 3 6 5 5 4 3 3 3 3 3 6 3 5 5 3 5 4 4 4 4 4 3 2 6 13 12 9 9 10 10 10 10
13 10 10 11 9 9 6 5 5 4 3 3 4 6 4 3 4 4 3 4 3 3 4 4 3 4 5 5 5 5 4 3 2 1 3 13 9 10 9 9 9 8 9
13 11 10 11 12 9 8 7 6 6 5 4 5 5 5 4 4 4 4 3 3 3 3 3 3 4 4 4 3 4 5 4 5 2 2 10 9 10 11 9 9 9 8
11 12 12 13 13 13 9 9 7 7 7 4 4 5 6 4 4 4 4 4 4 4 3 3 4 4 3 3 4 3 4 3 5 4 4 4 11 9 11 12 9 9 10
9 8 11 11 10 14 13 12 9 7 7 7 6 7 8 6 6 6 4 4 4 4 5 4 3 3 3 2 4 4 3 3 4 4 3 2 5 10 11 12 11 11 10
7 11 10 10 11 11 12 11 10 9 7 7 7 6 9 9 8 7 6 6 4 4 3 2 2 2 2 2 0 1 2 4 4 5 3 2 2 3 6 12 13 13 12
10 9 11 12 13 13 10 9 11 12 10 8 7 8 10 10 10 9 8 7 7 5 4 4 2 3 2 2 3 1 2 3 3 2 2 5 5 5 4 7 12 13 15
8 8 9 10 12 11 8 7 7 8 9 7 8 8 12 11 12 10 7 8 8 7 5 5 4 2 2 3 2 1 2 3 3 3 3 3 3 4 4 5 3 4 13
8 9 11 11 12 10 8 10 10 11 9 8 8 10 12 12 13 12 8 9 9 10 11 10 5 5 1 3 3 2 3 4 4 5 5 4 4 4 5 5 4 3 4
7 10 8 12 11 12 10 9 7 10 9 10 8 9 12 13 14 13 12 10 12 9 11 12 11 4 3 8 4 2 2 3 6 9 5 7 10 6 7 6 6 5 5
4 7 7 8 8 8 11 3 3 3 2 4 8 9 10 13 13 14 14 12 12 11 10 11 12 14 9 6 7 6 2 7 0 2 11 8 8 7 6 8 8 8 7
7 3 5 6 7 7 8 6 11 10 10 10 10 8 7 11 12 13 14 14 13 11 12 13 12 14 9 10 5 9 4 3 5 3 3 6 9 10 12 9 10 8 7
7 7 6 3 4 5 7 8 8 9 6 3 4 7 10 9 11 11 13 14 13 11 13 14 13 14 12 9 10 4 11 3 2 3 6 3 3 10 10 9 8 7 7
7 8 7 7 5 3 3 5 7 10 7 4 4 5 5 7 7 9 8 11 12 12 13 13 14 16 15 15 11 12 9 7 13 9 9 10 4 5 10 10 11 10 9
Wind_Direction
178 165 131 128 125 115 107 98 98 100 98 95 104 105 100 93 92 90 90 92 91 89 86 88 80 78 75 74 73 71 76 75 77 78 82 80 79 81 83 78 74 75 76
143 155 151 150 140 125 118 113 107 103 103 107 98 105 103 97 93 92 94 97 98 93 91 90 89 88 87 89 90 86 79 75 66 61 74 80 88 88 83 78 75 75 72
144 156 155 157 131 124 118 110 108 102 107 101 100 108 103 96 93 96 99 101 97 93 96 98 97 90 93 91 92 91 89 77 68 59 60 61 75 80 79 76 72 72 73
145 140 131 132 128 129 122 113 106 102 102 98 108 108 100 97 94 96 102 106 101 92 89 102 95 94 93 98 91 85 85 74 69 62 59 48 67 75 75 73 74 73 72
135 130 134 132 133 133 126 121 113 110 109 107 101 104 98 93 96 102 107 108 104 92 90 103 102 100 102 101 95 88 84 77 65 58 52 58 61 75 74 73 72 70 72
140 138 148 142 141 137 131 127 124 127 129 119 108 110 103 101 108 113 110 110 95 89 98 103 98 106 109 97 88 87 81 79 68 57 63 70 71 78 82 81 82 84 81
145 141 151 151 146 143 141 137 136 139 135 129 122 120 117 121 122 118 114 113 106 102 94 112 102 101 92 90 90 89 85 80 63 59 68 70 75 87 91 89 87 86 86
146 145 150 153 148 149 151 146 142 140 137 133 131 132 124 126 124 121 118 122 119 116 115 103 102 99 93 95 96 93 91 80 64 63 65 79 87 85 87 88 86 88 86
141 146 149 155 156 156 160 144 143 142 141 134 132 126 119 127 125 119 120 127 119 121 121 110 107 103 100 97 95 98 96 94 86 85 81 77 92 96 97 96 87 88 91
144 149 153 150 152 157 162 149 142 142 141 133 124 113 117 118 110 114 115 137 129 124 118 115 112 109 109 104 104 96 90 86 93 96 88 96 95 85 90 95 96 87 89
156 162 159 165 157 157 152 161 138 148 136 123 113 111 103 113 114 114 137 141 129 134 129 131 120 114 105 100 101 94 84 79 93 88 104 109 107 109 103 105 102 98 97
184 188 184 185 174 159 153 148 145 141 136 134 129 131 122 129 129 131 131 123 125 144 144 137 129 123 103 95 90 84 73 81 75 94 109 113 115 109 111 107 109 111 106
192 192 186 188 187 181 158 149 130 130 131 138 139 137 140 127 122 123 118 102 107 83 85 105 113 93 103 101 91 93 90 77 87 92 119 118 128 125 119 116 117 116 116
197 196 191 189 186 188 176 177 161 159 147 154 162 154 144 143 147 146 140 140 128 129 130 129 124 127 118 117 122 123 106 115 99 87 137 116 142 143 135 132 133 134 132
200 200 197 192 189 187 188 184 177 179 177 166 162 164 153 155 163 150 157 157 150 139 146 153 150 148 142 136 129 134 130 153 129 148 149 138 152 165 157 159 154 145 152
196 197 196 196 193 191 191 189 187 184 182 169 173 178 166 161 158 162 163 174 168 160 144 149 168 165 149 151 156 165 166 186 142 167 137 158 164 176 179 171 177 170 169
199 185 189 190 188 195 198 200 197 188 186 185 186 177 177 170 171 168 169 187 185 173 167 169 165 149 160 175 179 173 154 228 182 144 137 174 162 179 193 190 190 189 186
182 190 186 189 191 193 200 201 202 202 192 191 188 184 187 184 175 178 183 191 169 171 154 140 126 141 187 174 185 185 186 192 191 172 180 203 227 176 223 198 204 193 199
198 183 191 191 193 195 194 196 206 209 210 198 188 190 189 192 186 189 191 188 164 170 166 169 151 147 170 150 133 66 343 322 295 324 221 206 205 184 203 230 205 209 206
211 197 199 194 200 192 191 191 204 211 217 209 200 195 191 196 196 197 196 182 170 175 173 175 162 126 153 158 119 137 318 280 286 242 248 297 275 226 206 223 203 200 201
210 200 200 186 197 181 189 197 209 213 210 213 210 201 195 199 198 201 200 187 186 184 192 185 156 160 140 137 114 271 238 229 245 240 231 206 235 257 236 206 228 217 226
226 221 205 208 193 196 197 207 208 214 217 222 213 211 202 199 200 202 202 200 193 192 190 181 177 155 151 179 153 352 247 265 223 231 218 220 217 203 224 224 205 224 216
275 242 223 221 209 206 210 150 87 63 52 201 217 215 211 206 205 204 208 200 195 195 197 192 195 191 192 189 195 153 141 243 47 172 223 224 227 226 215 219 234 206 204
1 322 232 227 211 203 180 181 201 215 222 226 230 222 216 208 209 207 207 214 199 199 198 199 197 200 184 195 202 237 221 160 209 276 247 233 221 226 221 227 209 220 211
19 15 2 326 251 212 189 198 201 223 230 213 189 215 219 215 216 215 211 213 211 204 209 202 197 202 209 195 204 157 222 182 208 265 258 228 234 234 230 230 234 223 218
29 32 30 31 21 336 224 212 203 216 212 192 197 205 212 221 224 226 223 214 212 208 208 204 202 204 206 219 209 214 190 184 213 204 230 240 222 217 221 214 210 221 201